Showing default

ESEO, 43792

Orbit data source: Space-Track

ESEO, 43792 is a payload satellite owned by ESA (ESA) in SSO that was launched on Mon, 03 Dec 2018 UTC via an FALCON 9 launch vehicle from the Air Force Western Test Range (AFWTR). Payload-class satellites include a variety of spacecraft equipped with specific instruments for various scientific and technological missions. These include communications satellites like Starlink; space stations such as the ISS; scientific satellites like the Hubble; Earth observation satellites from companies like Planet Labs, Umbra, and HawkEye 360; GPS; miniature CubeSats for education and research; and military/defense satellites.

Loading next visibility...
Identifier
43792, 2018-099AL
Orbit
SSO
Last TLE update
15 hours ago
Origin
Manufacturer
ESTEC/OHBI
Mission
Operational Civil Technology
Bus & Motor
ESEO, Unknown motor
Mass
120 kg wet, 120 kg dry
Launch date (UTC)
2018-12-03 (7 years ago)
Launch vehicle
FALCON 9
Launch site
Air Force Western Test Range (AFWTR)
Object type
Payload
Rocket body
Debris
Shape & HBR
Box, 0.63 m
Radar Cross Section
0.262 m², Medium (>0.1 m² and < 1m²)

Expand to show TLE details & history

TLE from 15 hours ago
0 ESEO
1 43792U 18099AL  25170.39052463  .00001443  00000-0  11237-3 0  9998
2 43792  97.4486 217.5784 0014904 124.2918 235.9721 15.02659368357294
Epoch: 2025-06-19T09:22Z
TLE epoch observation values (Epoch: 2025-06-19T09:22:21.328Z)
Latitude
0.00001°
Longitude
169.13064°
Altitude
567.563 km
Speed
7.574 km/s
True Right ascension
14h 30m 18s
True Declination
0° 00' 00"
Sunlit
Object was in full shadow at epoch
Visualization orbit readout
Latitude
-62.73614°
Longitude
-24.86461°
Altitude
588.15 km
Speed
7.562 km/s
Apparent Right ascension
00h 27m 08s
Apparent Declination
-52° 26' 44"
Sunlit
Object is in daylight
Visualization observer readout
Local Sidereal Time
11:43:37
Azimuth
207.186° SW
Elevation
-75.417°
Doppler factor
1
Orbital elements
Apogee altitude
566.025 km
Perigee altitude
545.356 km
Semi-major axis
6,933.828 km
Eccentricity
0.00149
Inclination
97.4486°
RAAN
217.5784°
Arg. of periapsis
124.2918°
True anomaly
Unknown
Mean anomaly
235.9721°
Eccentric anomaly
Unknown
Mean motion
3.7591 °/min
Orbital period
95.77 mins
BSTAR
0.00011237
Loading maneuver chart data...
Loading SW <> Apogee altitude chart data...
Loading historical data...
Loading historical data...
Loading historical data...
Loading historical data...
Loading historical data...
Loading historical data...
Loading historical data...

ESEO Visibility forecast

Observer location: undefined°, undefined°

Span
Click to sort rows by Start time (UTC) header in descending order
Start Az.
Max El. time (UTC)
Max El. Az.
Max El.
End time (UTC)
End Az.
7 mins2025-06-20 03:04:06.933Z161.286° S2025-06-20 03:08:06.933Z46.73° ENE43.785°2025-06-20 03:11:06.933Z352.508° N
5 mins2025-06-20 16:19:06.933Z353.044° N2025-06-20 16:21:06.933Z289.789° WNW39.116°2025-06-20 16:24:06.933Z211.409° SW
|